Погода в Атбасаре

Погода в Атбасаре : погода сейчас, прогноз погоды и архив. Всё, что Вы хотите узнать о погоде в Атбасаре!

Хотите узнать прогноз погоды в Атбасаре? Тогда Вам сюда: Погода в Атбасаре

Поиск расширенной информации на нашем сайте:

Другие новости

Новости СМИ2

Главная страница сайта

Новости сайта

03.07.2017

Напоминаем, что на нашем специализированном сайте Метеоцентр.Азия вы можете получить высокодетализированные автоматические прогнозы погоды по пунктам России, СНГ и мира в авиационном формате (включающие направление и скорость ветра, видимость, явления погоды, количество и форму облачности, нижнюю и верхнюю границу облачности).


Погода в Атбасаре - сегодня

Время (UTC), дата Ветер
(°,м/с) 
Видим.   Явления Облачность Т
(°С)
Тd
(°С)
f(%) Тe
(°С)
Pmin
(гПа)
dP
(гПа)
Po
(мм)
O2
(г/м3)
Тmin Tmax R s Состояние
почвы
18 18.01.18 250 (З) н/о    ясно 
-27.7 -30.8 75 -31  1036.8  -0.2  746  336    -20.1       
21 18.01.18 250 (З) н/о    ясно 
-29.2 -32.4 74 -33  1036.8  -0.2  745  338           
00 19.01.18 250 (З) н/о    ясно 
-28.8 -32 74 -32  1036.2  -0.5  745  337           
03 19.01.18 250 (З) 20000 м    8/8 1000 м верхняя 
[Sc|Ci fib]
-26.2 -29.3 75 -30  1035.9  0.1  745  334        22  равномерный
сухой снег
100% 
06 19.01.18 230 (ЮЗ) 20000 м    8/3 1000 м средняя, верхняя 
[Sc|Ac cast|Ci fib]
-22.7 -25.6 77 -26  1035.9  0.6  746  329  -29.8         
09 19.01.18 290 (З) 20000 м    3/0 верхняя 
[Ci sp]
-19.2 -21.8 80 -22  1035.1  -0.2  745  325           
12 19.01.18 050 (СВ) 20000 м    4/0 средняя, верхняя 
[Ac lent|Ci fib]
-21.9 -24.4 80 -25  1036.8  1.2  746  329           
15 19.01.18 050 (СВ) н/о    1/0 средняя 
[Ac lent]
-23.3 -26.2 77 -26  1037.7  0.6  747  331    -19.1       
18 19.01.18 050 (СВ) н/о    1/0 средняя 
[Ac lent]
-26.2 -29.2 76 -30  1038.5  0.3  747  335    -19.1       
21 19.01.18 050 (СВ) н/о    1/0 средняя 
[Ac lent]
-25.4 -28.3 77 -29  1038.6  0.3  747  334           
00 20.01.18 тихо ()   н/о    ясно 
-26.8 -29.8 76 -27  1039.1  0.2  747  336           
03 20.01.18 050 (СВ) 4000 м  дымка  ясно 
-25.9 -29 75 -29  1039.4  0.4  748  335        22  равномерный
сухой снег
100% 
06 20.01.18 050 (СВ) 10 км  ледяные иглы  ясно 
-22.8 -25.9 76 -26  1039.5  0.7  748  331  -26.9         
09 20.01.18 090 (В) 20000 м    ясно 
-18.9 -21.5 80 -24  1038.8  -0.1  748  325           
12 20.01.18 070 (В) 20000 м    ясно 
-20.6 -23.9 75 -26  1038.9  -0.2  748  328           
15 20.01.18 070 (В) н/о    ясно 
-23.1 -26.3 75 -29  1038.9  -0.4  748  331    -18.7       
18 20.01.18 тихо ()   н/о    ясно 
-23.9 -26.9 76 -24  1039.4  0.4  748  332    -18.7       
21 20.01.18 090 (В) н/о    ясно 
-22.6 -25.7 76 -28  1039.3  0.1  748  330           
00 21.01.18 070 (В) н/о    ясно 
-21.9 -25 76 -30  1038.5  -0.7  747  329           
03 21.01.18 070 (В) 4000 м  дымка  3/0 верхняя 
[Ci fib]
-21.8 -24.9 76 -29  1038.8  0.3  748  329        22  равномерный
сухой снег
100% 
06 21.01.18 070 (В) 4000 м  дымка  9/0 средняя 
[Ac cast]
-22.1 -25.3 75 -30  1040.7  1.8  749  330  -24.3         
09 21.01.18 070 (В) 10  20000 м    9/0 средняя, верхняя 
[Ac lent|Ci sp]
-20.8 -24.8 70 -31  1039.4  -1  748  328           
12 21.01.18 070 (В) 10  20000 м  позёмок  8/4 1000 м средняя 
[Sc|Ac cast]
-21.6 -26.8 63 -32  1040.6  749  329           
15 21.01.18 090 (В) 10  н/о  позёмок  6/0 средняя, верхняя 
[Ac trans|Ci fib]
-24.6 -29.8 62 -35  1042.3  1.1  750  334    -20.8       
18 21.01.18 090 (В) 10  н/о  позёмок  4/0 верхняя 
[Ci fib]
-26.9 -32.2 61 -38  1043.7  751  337    -20.8       
Время (UTC), дата Ветер
(°,м/с) 
Видим.   Явления Облачность Т
(°С)
Тd
(°С)
f(%) Тe
(°С)
Pmin
(гПа)
dP
(гПа)
Po
(мм)
O2
(г/м3)
Тmin Tmax R s Состояние
почвы

Для получения пояснительной информации подведите курсор к названию столбца.

ПОГОДА в Атбасаре - архив

Всё, что Вы хотите узнать о погоде в Атбасаре - удобно и подробно!

Выберите нужную дату (начиная с 1 января 2015* года) и нажмите кнопку "Найти".
Будут отображены архивные сводки погоды по пункту Атбасар, начиная с указанной даты.


Отображать данные в формате CSV (для использования в таблицах Excel)


Внимание! Наш архив погоды предназначен исключительно для личного некоммерческого использования в познавательных целях. Если Вам необходимы официальные справки о состоянии погоды (для производственных, юридических, коммерческих и т.п. целей), обращайтесь в органы Росгидромета.

*Примечание: данная дата относится к архиву по метеостанциям СССР (Россия, СНГ, Балтия).
Архив по метеостанциям Зарубежной Европы и Азии (кроме Китая) хранится 10 дней, по другим регионам земного шара (Китай, Африка, Америка, Австралия, Океания) - 1 день.

Атбасар - район местоположения метеостанции


Название, широта, долгота, высота метеостанции:
Атбасар 51.8°ш. 68.4°д. 304 м над ур. моря [Казахстан]

Дополнительная информация

В oтличие oт бoльшинства пoгoдных сайтoв мы публикуем пoдрoбную метеoинфoрмацию в детальнoм прoфессиoнальнoм фoрмате.

Характеристики температуры и влажнoсти вoздуха измеряются на высoте 2 м в тени вдали oт зданий и деревьев.
Скoрoсть ветра измеряется на высoте 10 м (на урoвне рoста челoвека скoрoсть ветра ниже в 1.5-2 раза). Если метеoстанция нахoдится в гoрoде или в лесу, тo скoрoсть ветра занижена на 2-4 м/с пo сравнению с oткрытым местoм. Скoрoсть ветра над акватoриями крупных рек и oзёр, а также на вершинах хoлмoв на 2-5 м/с выше, чем в oбычных услoвиях.
Атмoсфернoе давление в разных тoчках местнoсти мoжет значительнo oтличаться oт давления на метеoстанции, в зависимoсти oт услoвий рельефа (при пoдъёме на 10 м давление пoнижается примернo на 1 мм рт.ст.).